Notices

What's New in latest Release from April 7th, 2021:

- Updated Glossary, including Speed of Maximum Gust, and Total Hourly Precipitation

- Updated national and regional climate services offices contacts and prices information

- Addition of station inventory lists for 1981-2010, 1971-2000, and 1961-1990 Normals.

If you haven't already, please take our survey and provide feedback about our website: https://eccc.sondage-survey.ca/f/LanguageSelection.aspx?s=442ca660-fcf1-47c0-95a9-59707d6fd709

Hourly Data Report for August 26, 2016

TORONTO CITY
ONTARIO

43°40'00.000" N
79°24'00.000" W
112.50 m
6158355
71508
XTO

Download Data

Hourly Data (August 2016)
Hourly Data Report for August 26, 2016
TIME
LST
Temp Definition
°C
Dew Point Definition
°C
Rel Hum Definition
%
Precip. Amount Definition
mm

Wind Dir Definition
10's deg

Wind Spd Definition
km/h
Visibility Definition
km
Stn Press Definition
kPa
Hmdx Definition


Wind Chill Definition


Weather Definition


00:00 22.4 20.1 87 0.0 LegendMM LegendMM   100.04 30   LegendNANA
01:00 21.2 19.6 90 0.0 LegendMM LegendMM   100.05 28   LegendNANA
02:00 20.7 19.3 91 0.0 LegendMM LegendMM   100.15 28   LegendNANA
03:00 20.5 18.8 90 0.0 LegendMM LegendMM   100.17 27   LegendNANA
04:00 21.0 18.5 86 0.0 LegendMM LegendMM   100.25 27   LegendNANA
05:00 20.3 18.5 90 0.0 LegendMM LegendMM   100.33 27   LegendNANA
06:00 19.9 18.1 90 0.0 LegendMM LegendMM   100.38     LegendNANA
07:00 21.0 18.7 87 0.0 LegendMM LegendMM   100.43 28   LegendNANA
08:00 22.6 18.0 75 0.0 LegendMM LegendMM   100.46 29   LegendNANA
09:00 24.7 17.2 63 0.0 LegendMM LegendMM   100.49 30   LegendNANA
10:00 25.8 15.6 54 0.0 LegendMM LegendMM   100.50 30   LegendNANA
11:00 26.4 17.7 59 0.0 LegendMM LegendMM   100.55 32   LegendNANA
12:00 26.7 18.4 61 0.0 LegendMM LegendMM   100.51 33   LegendNANA
13:00 27.3 17.5 55 0.0 LegendMM LegendMM   100.50 33   LegendNANA
14:00 28.5 17.5 51 0.0 LegendMM LegendMM   100.44 34   LegendNANA
15:00 29.9 14.7 40 0.0 LegendMM LegendMM   100.41 34   LegendNANA
16:00 29.4 12.4 35 0.0 LegendMM LegendMM   100.42 32   LegendNANA
17:00 28.9 12.3 36 0.0 LegendMM LegendMM   100.43 31   LegendNANA
18:00 28.0 12.3 38 0.0 LegendMM LegendMM   100.45 30   LegendNANA
19:00 26.6 13.2 44 0.0 LegendMM LegendMM   100.51 30   LegendNANA
20:00 25.6 14.8 51 0.0 LegendMM LegendMM   100.58 29   LegendNANA
21:00 23.3 14.6 58 0.0 LegendMM LegendMM   100.68 27   LegendNANA
22:00 22.2 14.9 63 0.0 LegendMM LegendMM   100.72 26   LegendNANA
23:00 21.8 15.0 66 0.0 LegendMM LegendMM   100.77 26   LegendNANA

Notes on Data Quality.

Legend

  • E = Estimated
  • M = Missing
  • NA = Not Available*
  • [empty] = Indicates an unobserved value
Date modified: